Location: San Antonio
(29.4240°N, 98.4930°W)
Time: 18:22:25
(UTC-05:00)

ZACube-1 - Pass Details

Date: 02 August 2024
Orbit: 561 x 628 km, 97.7° (Epoch: 15 September)

Event Time Altitude Azimuth Distance (km) Brightness Sun altitude
Rises 05:18:55 0° 350° (N) 2,888 ? -19.4°
Reaches altitude 10° 05:21:41 10° 331° (NNW) 1,991 ? -18.9°
Enters shadow 05:24:09 17° 296° (WNW) 1,570 ? -18.4°
